Monroe, NC

1:59 PM EDT on June 28, 2017 (GMT -0400)
Monroe

Weather History for KEQY - December, 2013

Change the Weather History Date:

Monday, December 30, 2013

  Actual Average (KCLT) Record (KCLT)
Temperature  
Mean Temperature 44 °F -  
Max Temperature 52 °F 49 °F 76 °F (1984)
Min Temperature 35 °F 33 °F -5 °F (1880)
Degree Days  
Heating Degree Days 22    
Moisture  
Dew Point 38 °F    
Average Humidity 92    
Maximum Humidity 100    
Minimum Humidity 66    
Precipitation  
Precipitation 0.00 in - - ()
Sea Level Pressure  
Sea Level Pressure 30.04 in    
Wind  
Wind Speed 1 mph (WSW)    
Max Wind Speed 7 mph    
Max Gust Speed -    
Visibility 4 miles    
Events Fog    
Averages and records for this station are not official NWS values.
T = Trace of Precipitation, MM = Missing Value Source: NWS Daily Summary

Daily Weather History Graph

Daily Weather History Graph

Search for Another Location

Airport or City:

Trip Planner

Search our weather history database for the weather conditions in past years. The results will help you decide how hot, cold, wet, or windy it might be!

Date:

Astronomy

Dec. 30, 2013 Rise Set
Actual Time 7:30 AM EST 5:20 PM EST
Civil Twilight 7:02 AM EST 5:48 PM EST
Nautical Twilight 6:30 AM EST 6:20 PM EST
Astronomical Twilight 5:59 AM EST 6:50 PM EST
Moon 5:20 AM EST (12/30) 3:50 PM EST (12/30)
Length of Visible Light 10h 46m
Length of Day
9h 50m
Waning Crescent, 5% of the Moon is Illuminated
Dec 30
Waning Crescent
Jan 1
New
Jan 7
First Quarter
Jan 15
Full
Jan 24
Last Quarter

Hourly Weather History & Observations

Time (EST) Temp. Windchill Dew Point Humidity Pressure Visibility Wind Dir Wind Speed Gust Speed Precip Events Conditions
12:11 AM 44.6 °F - 44.6 °F 100% 29.94 in 1.8 mi Calm Calm - N/A   Clear
12:24 AM 42.8 °F 41.1 °F 42.8 °F 100% 29.94 in 0.5 mi WSW 3.5 mph - N/A Fog Fog
12:53 AM 42.1 °F - 41.0 °F 96% 29.99 in 0.2 mi Calm Calm - N/A Fog Fog
1:53 AM 39.0 °F - 37.9 °F 96% 30.00 in 0.5 mi Calm Calm - N/A Fog Fog
2:05 AM 39.2 °F 37.0 °F 39.2 °F 100% 29.96 in 1.0 mi NW 3.5 mph - N/A   Mist
2:11 AM 39.2 °F 37.0 °F 37.4 °F 93% 29.96 in 2.0 mi NW 3.5 mph - N/A   Partly Cloudy
2:19 AM 39.2 °F - 37.4 °F 93% 29.96 in 7.0 mi Calm Calm - N/A   Partly Cloudy
2:32 AM 37.4 °F 34.9 °F 35.6 °F 93% 29.97 in 1.5 mi SW 3.5 mph - N/A   Partly Cloudy
2:45 AM 37.4 °F - 37.4 °F 100% 29.97 in 0.8 mi Calm Calm - N/A   Mist
2:53 AM 37.9 °F - 37.0 °F 97% 30.02 in 1.0 mi Calm Calm - N/A   Mist
3:04 AM 39.2 °F - 37.4 °F 93% 29.98 in 0.5 mi Calm Calm - N/A Fog Fog
3:16 AM 37.4 °F - 37.4 °F 100% 29.98 in 1.0 mi Calm Calm - N/A   Mist
3:24 AM 37.4 °F - 35.6 °F 93% 29.98 in 1.5 mi Calm Calm - N/A   Partly Cloudy
3:50 AM 35.6 °F - 35.6 °F 100% 29.97 in 0.8 mi Calm Calm - N/A   Clear
3:53 AM 36.0 °F - 35.1 °F 97% 30.02 in 0.8 mi Calm Calm - N/A   Clear
4:00 AM 37.4 °F - 35.6 °F 93% 29.97 in 0.5 mi Calm Calm - N/A Fog Fog
4:08 AM 37.4 °F - 35.6 °F 93% 29.97 in 1.0 mi Calm Calm - N/A   Clear
4:35 AM 37.4 °F - 35.6 °F 93% 29.98 in 1.0 mi Calm Calm - N/A   Mist
4:48 AM 35.6 °F - 35.6 °F 100% 29.98 in 2.0 mi Calm Calm - N/A   Mostly Cloudy
4:53 AM 37.0 °F - 35.1 °F 93% 30.03 in 4.0 mi Calm Calm - N/A   Mostly Cloudy
4:58 AM 37.4 °F - 35.6 °F 93% 29.98 in 1.8 mi Calm Calm - N/A   Mostly Cloudy
5:08 AM 35.6 °F 32.8 °F 35.6 °F 100% 29.99 in 0.5 mi West 3.5 mph - N/A Fog Fog
5:46 AM 35.6 °F - 35.6 °F 100% 30.00 in 0.8 mi Calm Calm - N/A   Mist
5:53 AM 35.1 °F 32.2 °F 35.1 °F 100% 30.04 in 1.5 mi WSW 3.5 mph - N/A   Scattered Clouds
6:03 AM 35.6 °F - 35.6 °F 100% 29.99 in 1.5 mi Calm Calm - N/A   Mostly Cloudy
6:07 AM 35.6 °F - 35.6 °F 100% 30.00 in 3.0 mi Calm Calm - N/A   Mostly Cloudy
6:10 AM 35.6 °F - 35.6 °F 100% 30.00 in 1.8 mi Calm Calm - N/A   Mostly Cloudy
6:53 AM 35.1 °F - 35.1 °F 100% 30.07 in 1.0 mi Calm Calm - N/A   Mist
7:07 AM 35.6 °F - 35.6 °F 100% 30.02 in 2.0 mi Calm Calm - N/A   Scattered Clouds
7:15 AM 35.6 °F - 35.6 °F 100% 30.02 in 6.0 mi Calm Calm - N/A   Partly Cloudy
7:32 AM 35.6 °F - 33.8 °F 93% 30.03 in 1.2 mi Calm Calm - N/A   Mostly Cloudy
7:36 AM 35.6 °F - 33.8 °F 93% 30.04 in 0.5 mi Calm Calm - N/A Fog Fog
7:53 AM 35.1 °F 32.2 °F 34.0 °F 96% 30.09 in 0.5 mi WSW 3.5 mph - N/A Fog Fog
7:58 AM 35.6 °F - 33.8 °F 93% 30.04 in 1.0 mi Calm Calm - N/A   Mist
8:13 AM 35.6 °F - 35.6 °F 100% 30.04 in 3.0 mi Calm Calm - N/A   Scattered Clouds
8:53 AM 37.9 °F 35.5 °F 37.9 °F 100% 30.11 in 10.0 mi WSW 3.5 mph - N/A   Clear
9:53 AM 43.0 °F 40.3 °F 41.0 °F 93% 30.14 in 10.0 mi SW 4.6 mph - N/A   Clear
10:53 AM 48.0 °F - 43.0 °F 83% 30.13 in 10.0 mi SSW 3.5 mph - N/A   Clear
11:53 AM 50.0 °F - 43.0 °F 77% 30.12 in 10.0 mi WSW 6.9 mph - N/A   Clear
12:53 PM 51.1 °F - 43.0 °F 74% 30.11 in 10.0 mi WSW 4.6 mph - N/A   Clear
1:53 PM 52.0 °F - 41.0 °F 66% 30.11 in 10.0 mi WSW 5.8 mph - N/A   Clear
2:53 PM 52.0 °F - 41.0 °F 66% 30.10 in 10.0 mi SSW 3.5 mph - N/A   Clear
3:53 PM 52.0 °F - 41.0 °F 66% 30.12 in 10.0 mi SSW 4.6 mph - N/A   Clear
4:53 PM 50.0 °F - 41.0 °F 71% 30.12 in 10.0 mi Calm Calm - N/A   Clear
5:53 PM 46.9 °F - 41.0 °F 80% 30.12 in 10.0 mi Calm Calm - N/A   Clear
6:53 PM 46.0 °F - 41.0 °F 83% 30.14 in 10.0 mi Calm Calm - N/A   Clear
7:53 PM 46.0 °F 44.8 °F 41.0 °F 83% 30.16 in 10.0 mi WSW 3.5 mph - N/A   Clear
8:53 PM 43.0 °F - 41.0 °F 93% 30.16 in 10.0 mi Calm Calm - N/A   Clear
9:53 PM 44.1 °F - 42.1 °F 93% 30.17 in 10.0 mi Calm Calm - N/A   Clear
10:53 PM 45.0 °F 41.8 °F 42.1 °F 90% 30.15 in 10.0 mi SSW 5.8 mph - N/A   Scattered Clouds
11:53 PM 45.0 °F 42.6 °F 42.1 °F 90% 30.15 in 10.0 mi WSW 4.6 mph - N/A   Overcast